MUOS-3

Last updated on Tue Sep 16 2025 00:02:48 GMT+0000 (Coordinated Universal Time)

1 40374U 15002A 25258.22454885 -.00000143 00000+0 00000+0 0 9993 2 40374 3.9995 41.7003 0059332 178.4232 199.6263 1.00270413 38835
UTC large
Height (km)
Speed (km/s)
/
Latitude / Longitude
Inclination (degrees)
Orbital Period (minutes)
Azimuth
Elevation
Range (km)
Doppler Factor

Next 0 passes for location: London (51.5072 / 0.1276)

Sorry there are no passes over London.